GFSNGP_prec_pwat_267.txt.gz
Precipitable_Water
0.19 0.16 0.14 0.13 0.12 0.14 0.14 0.14 0.13 0.18 0.19 0.22 0.23 0.23 0.22 0.23 0.23 0.23 0.23 0.25 0.26 0.26 0.26 0.27 0.27 0.29 0.31 0.32 0.32 0.36 0.37 0.41 0.42 0.44 0.46 0.47 0.48 0.59 0.65 0.65 0.69 0.74 0.71 0.68
0.13 0.15 0.14 0.10 0.11 0.12 0.13 0.15 0.17 0.18 0.17 0.23 0.25 0.24 0.21 0.21 0.23 0.21 0.20 0.20 0.20 0.22 0.23 0.23 0.25 0.29 0.32 0.32 0.32 0.35 0.35 0.34 0.37 0.37 0.39 0.42 0.47 0.45 0.46 0.49 0.56 0.58 0.67 0.76
0.10 0.14 0.13 0.10 0.11 0.11 0.12 0.15 0.16 0.14 0.19 0.24 0.22 0.22 0.21 0.22 0.25 0.24 0.22 0.19 0.19 0.22 0.23 0.25 0.28 0.31 0.32 0.34 0.35 0.34 0.33 0.34 0.33 0.31 0.31 0.34 0.37 0.38 0.39 0.42 0.44 0.45 0.47 0.52
0.14 0.14 0.07 0.10 0.20 0.17 0.13 0.16 0.19 0.22 0.23 0.22 0.22 0.24 0.24 0.27 0.28 0.26 0.19 0.20 0.22 0.23 0.26 0.29 0.32 0.33 0.32 0.34 0.34 0.34 0.32 0.29 0.29 0.30 0.32 0.34 0.35 0.36 0.37 0.38 0.39 0.40 0.40 0.40
0.11 0.11 0.11 0.15 0.18 0.16 0.13 0.14 0.21 0.20 0.21 0.21 0.21 0.24 0.25 0.28 0.31 0.26 0.21 0.23 0.23 0.24 0.28 0.29 0.30 0.29 0.31 0.31 0.31 0.31 0.31 0.32 0.34 0.34 0.33 0.35 0.34 0.35 0.37 0.36 0.35 0.37 0.39 0.40
0.16 0.11 0.08 0.16 0.19 0.21 0.20 0.13 0.23 0.23 0.21 0.21 0.21 0.15 0.22 0.29 0.30 0.23 0.22 0.23 0.23 0.24 0.28 0.28 0.28 0.29 0.28 0.28 0.30 0.30 0.33 0.34 0.37 0.38 0.38 0.36 0.36 0.36 0.36 0.36 0.35 0.36 0.36 0.39
0.17 0.12 0.13 0.21 0.20 0.22 0.12 0.12 0.20 0.22 0.23 0.22 0.20 0.22 0.28 0.29 0.26 0.21 0.23 0.24 0.25 0.26 0.27 0.29 0.31 0.30 0.27 0.26 0.26 0.30 0.32 0.34 0.36 0.39 0.39 0.41 0.40 0.38 0.36 0.33 0.33 0.34 0.34 0.36
0.20 0.16 0.10 0.21 0.20 0.15 0.18 0.23 0.23 0.24 0.25 0.24 0.26 0.27 0.27 0.26 0.21 0.21 0.22 0.24 0.26 0.25 0.27 0.32 0.32 0.30 0.27 0.26 0.28 0.29 0.30 0.31 0.32 0.35 0.35 0.37 0.39 0.38 0.37 0.36 0.33 0.32 0.32 0.32
0.18 0.17 0.24 0.27 0.22 0.27 0.27 0.24 0.25 0.25 0.26 0.26 0.26 0.26 0.25 0.22 0.21 0.22 0.23 0.24 0.26 0.26 0.27 0.29 0.31 0.30 0.26 0.26 0.29 0.29 0.28 0.29 0.30 0.31 0.33 0.33 0.32 0.34 0.35 0.36 0.34 0.32 0.32 0.31
0.21 0.21 0.23 0.26 0.27 0.28 0.29 0.27 0.27 0.28 0.27 0.26 0.26 0.27 0.24 0.24 0.22 0.22 0.23 0.24 0.27 0.26 0.25 0.25 0.27 0.27 0.26 0.28 0.30 0.29 0.27 0.26 0.28 0.28 0.29 0.31 0.32 0.34 0.35 0.35 0.34 0.33 0.32 0.31
0.23 0.25 0.26 0.28 0.27 0.28 0.29 0.30 0.29 0.29 0.28 0.29 0.30 0.27 0.27 0.25 0.23 0.23 0.24 0.26 0.26 0.25 0.25 0.24 0.24 0.24 0.25 0.27 0.28 0.27 0.26 0.26 0.26 0.27 0.28 0.29 0.30 0.32 0.33 0.37 0.37 0.35 0.34 0.33
0.18 0.26 0.25 0.27 0.30 0.31 0.29 0.28 0.28 0.28 0.29 0.33 0.32 0.29 0.28 0.26 0.25 0.24 0.25 0.26 0.26 0.27 0.26 0.26 0.25 0.24 0.25 0.27 0.28 0.26 0.24 0.24 0.25 0.26 0.28 0.29 0.29 0.29 0.33 0.35 0.38 0.38 0.37 0.36
0.25 0.29 0.29 0.31 0.31 0.31 0.29 0.30 0.30 0.30 0.32 0.31 0.31 0.31 0.30 0.27 0.26 0.25 0.27 0.28 0.28 0.28 0.28 0.28 0.25 0.23 0.25 0.29 0.27 0.26 0.24 0.25 0.26 0.27 0.27 0.28 0.28 0.28 0.26 0.30 0.35 0.37 0.37 0.37
0.32 0.29 0.26 0.29 0.28 0.30 0.30 0.31 0.32 0.32 0.33 0.34 0.34 0.33 0.31 0.27 0.26 0.27 0.28 0.30 0.31 0.30 0.29 0.27 0.24 0.24 0.28 0.28 0.27 0.25 0.24 0.26 0.27 0.27 0.28 0.29 0.29 0.29 0.29 0.28 0.28 0.31 0.36 0.37
0.31 0.31 0.29 0.29 0.29 0.31 0.31 0.31 0.31 0.31 0.32 0.34 0.34 0.33 0.32 0.26 0.27 0.29 0.32 0.33 0.31 0.30 0.28 0.25 0.23 0.25 0.29 0.29 0.26 0.26 0.25 0.26 0.28 0.28 0.29 0.30 0.31 0.30 0.30 0.30 0.31 0.32 0.35 0.37
0.26 0.27 0.27 0.26 0.27 0.27 0.27 0.27 0.29 0.31 0.32 0.33 0.33 0.34 0.35 0.30 0.31 0.31 0.33 0.33 0.29 0.27 0.27 0.25 0.24 0.28 0.31 0.28 0.26 0.26 0.27 0.28 0.28 0.28 0.29 0.31 0.32 0.30 0.30 0.31 0.31 0.33 0.34 0.36
0.26 0.23 0.23 0.23 0.24 0.26 0.26 0.28 0.30 0.31 0.32 0.33 0.34 0.35 0.32 0.32 0.31 0.31 0.31 0.30 0.28 0.26 0.26 0.26 0.25 0.30 0.28 0.26 0.25 0.26 0.28 0.28 0.27 0.28 0.30 0.31 0.31 0.29 0.31 0.32 0.32 0.34 0.37 0.41
0.31 0.30 0.28 0.25 0.25 0.27 0.28 0.29 0.32 0.34 0.33 0.34 0.35 0.35 0.33 0.30 0.28 0.26 0.26 0.26 0.25 0.23 0.24 0.27 0.29 0.28 0.26 0.25 0.26 0.27 0.28 0.29 0.27 0.28 0.30 0.31 0.31 0.30 0.32 0.33 0.34 0.36 0.39 0.42
0.28 0.27 0.29 0.27 0.27 0.28 0.30 0.31 0.35 0.37 0.36 0.35 0.35 0.34 0.33 0.28 0.27 0.26 0.27 0.24 0.22 0.22 0.23 0.27 0.29 0.26 0.23 0.24 0.27 0.27 0.27 0.27 0.27 0.29 0.30 0.32 0.31 0.31 0.32 0.33 0.35 0.39 0.41 0.42
0.29 0.29 0.29 0.28 0.29 0.30 0.31 0.34 0.36 0.36 0.37 0.36 0.35 0.33 0.27 0.28 0.29 0.27 0.26 0.23 0.26 0.26 0.27 0.26 0.24 0.22 0.23 0.26 0.26 0.26 0.26 0.27 0.28 0.29 0.30 0.31 0.30 0.30 0.32 0.34 0.37 0.41 0.41 0.41
0.30 0.29 0.29 0.28 0.29 0.32 0.34 0.36 0.35 0.36 0.37 0.36 0.32 0.28 0.28 0.29 0.29 0.29 0.26 0.23 0.27 0.28 0.25 0.23 0.19 0.17 0.22 0.22 0.22 0.23 0.24 0.25 0.26 0.28 0.29 0.31 0.30 0.30 0.32 0.34 0.39 0.41 0.41 0.41
0.31 0.30 0.30 0.30 0.31 0.33 0.36 0.37 0.38 0.38 0.37 0.35 0.31 0.31 0.30 0.27 0.29 0.28 0.28 0.25 0.26 0.24 0.21 0.19 0.19 0.18 0.19 0.20 0.22 0.21 0.21 0.23 0.24 0.27 0.30 0.32 0.30 0.30 0.32 0.35 0.39 0.41 0.41 0.42
0.32 0.31 0.32 0.33 0.33 0.35 0.37 0.38 0.39 0.39 0.35 0.31 0.31 0.30 0.29 0.28 0.27 0.24 0.19 0.23 0.23 0.21 0.19 0.18 0.20 0.21 0.21 0.19 0.19 0.19 0.21 0.22 0.24 0.28 0.31 0.32 0.31 0.31 0.33 0.36 0.41 0.41 0.41 0.42
0.34 0.35 0.35 0.37 0.37 0.35 0.34 0.35 0.37 0.34 0.33 0.33 0.32 0.32 0.28 0.26 0.26 0.25 0.24 0.22 0.20 0.19 0.18 0.18 0.18 0.19 0.19 0.18 0.19 0.20 0.21 0.23 0.25 0.29 0.32 0.33 0.32 0.33 0.35 0.39 0.41 0.41 0.42 0.42
0.36 0.36 0.36 0.36 0.35 0.34 0.35 0.35 0.33 0.34 0.32 0.34 0.34 0.31 0.29 0.29 0.24 0.21 0.20 0.20 0.19 0.19 0.17 0.18 0.18 0.18 0.18 0.18 0.19 0.20 0.21 0.24 0.27 0.30 0.31 0.32 0.32 0.34 0.36 0.40 0.41 0.42 0.43 0.43
0.37 0.37 0.37 0.36 0.35 0.35 0.35 0.35 0.34 0.35 0.35 0.33 0.32 0.31 0.29 0.26 0.22 0.21 0.21 0.20 0.19 0.19 0.18 0.18 0.18 0.18 0.18 0.19 0.19 0.20 0.22 0.24 0.28 0.30 0.33 0.33 0.33 0.35 0.37 0.41 0.42 0.43 0.43 0.44
0.41 0.39 0.36 0.36 0.37 0.37 0.37 0.39 0.37 0.34 0.32 0.30 0.27 0.27 0.25 0.22 0.21 0.20 0.20 0.19 0.19 0.19 0.18 0.18 0.17 0.17 0.18 0.19 0.19 0.20 0.23 0.25 0.29 0.31 0.33 0.34 0.34 0.35 0.38 0.42 0.43 0.44 0.44 0.45

GFSNGP_prec_pwat_270.txt.gz
Precipitable_Water
0.17 0.15 0.17 0.16 0.13 0.14 0.13 0.12 0.13 0.13 0.16 0.20 0.21 0.22 0.23 0.24 0.23 0.22 0.21 0.20 0.20 0.21 0.21 0.22 0.24 0.27 0.30 0.32 0.32 0.32 0.31 0.30 0.30 0.29 0.30 0.32 0.35 0.37 0.38 0.38 0.38 0.40 0.43 0.47
0.15 0.17 0.15 0.13 0.14 0.15 0.15 0.15 0.15 0.16 0.17 0.23 0.24 0.24 0.23 0.24 0.23 0.20 0.20 0.21 0.19 0.20 0.20 0.21 0.25 0.28 0.30 0.31 0.31 0.32 0.29 0.27 0.27 0.27 0.28 0.29 0.30 0.30 0.32 0.33 0.34 0.36 0.35 0.36
0.10 0.15 0.14 0.10 0.10 0.11 0.13 0.16 0.14 0.12 0.17 0.22 0.21 0.21 0.23 0.24 0.23 0.21 0.23 0.23 0.18 0.19 0.21 0.24 0.26 0.28 0.28 0.29 0.31 0.30 0.29 0.29 0.30 0.30 0.30 0.30 0.31 0.30 0.29 0.29 0.30 0.31 0.33 0.35
0.12 0.13 0.06 0.10 0.16 0.15 0.11 0.13 0.15 0.17 0.19 0.21 0.22 0.24 0.27 0.26 0.22 0.25 0.26 0.20 0.19 0.20 0.22 0.25 0.27 0.26 0.27 0.28 0.28 0.28 0.28 0.29 0.30 0.31 0.32 0.33 0.33 0.32 0.32 0.31 0.29 0.28 0.30 0.32
0.09 0.10 0.10 0.11 0.14 0.14 0.12 0.11 0.14 0.17 0.21 0.23 0.25 0.26 0.25 0.27 0.25 0.28 0.28 0.19 0.21 0.22 0.24 0.27 0.26 0.26 0.26 0.25 0.25 0.25 0.25 0.27 0.28 0.29 0.29 0.29 0.31 0.32 0.33 0.32 0.30 0.30 0.31 0.30
0.15 0.08 0.06 0.11 0.16 0.20 0.19 0.10 0.15 0.20 0.21 0.22 0.23 0.17 0.20 0.26 0.27 0.30 0.25 0.22 0.23 0.24 0.26 0.26 0.27 0.29 0.28 0.26 0.24 0.22 0.23 0.24 0.27 0.29 0.29 0.29 0.29 0.28 0.29 0.31 0.32 0.33 0.32 0.33
0.14 0.10 0.10 0.15 0.21 0.22 0.11 0.10 0.17 0.20 0.21 0.23 0.20 0.21 0.26 0.27 0.27 0.30 0.24 0.24 0.26 0.26 0.25 0.28 0.30 0.30 0.27 0.26 0.24 0.25 0.26 0.26 0.26 0.27 0.27 0.28 0.28 0.28 0.28 0.28 0.28 0.30 0.32 0.33
0.18 0.13 0.09 0.18 0.21 0.14 0.17 0.20 0.21 0.22 0.23 0.24 0.25 0.26 0.26 0.27 0.26 0.27 0.23 0.25 0.26 0.25 0.27 0.30 0.31 0.29 0.26 0.23 0.25 0.26 0.27 0.26 0.26 0.26 0.27 0.27 0.26 0.27 0.27 0.27 0.27 0.27 0.29 0.32
0.18 0.15 0.21 0.24 0.22 0.23 0.23 0.21 0.22 0.22 0.25 0.26 0.26 0.26 0.27 0.26 0.25 0.25 0.23 0.25 0.26 0.26 0.27 0.29 0.29 0.27 0.22 0.22 0.25 0.25 0.25 0.24 0.24 0.25 0.26 0.26 0.25 0.25 0.25 0.27 0.26 0.25 0.27 0.30
0.19 0.19 0.21 0.25 0.27 0.26 0.25 0.24 0.25 0.26 0.26 0.28 0.27 0.28 0.27 0.25 0.26 0.24 0.24 0.24 0.26 0.26 0.24 0.24 0.25 0.24 0.24 0.24 0.25 0.24 0.23 0.23 0.24 0.23 0.24 0.25 0.26 0.27 0.27 0.27 0.26 0.26 0.26 0.27
0.20 0.22 0.24 0.25 0.28 0.27 0.26 0.27 0.27 0.28 0.29 0.29 0.29 0.28 0.26 0.26 0.26 0.25 0.24 0.25 0.25 0.23 0.24 0.24 0.26 0.25 0.25 0.25 0.26 0.25 0.24 0.22 0.22 0.23 0.23 0.23 0.25 0.26 0.27 0.29 0.30 0.27 0.29 0.29
0.16 0.23 0.24 0.24 0.29 0.32 0.28 0.27 0.28 0.27 0.28 0.30 0.28 0.26 0.27 0.28 0.29 0.26 0.24 0.25 0.24 0.26 0.26 0.27 0.27 0.26 0.25 0.26 0.27 0.24 0.21 0.21 0.21 0.22 0.23 0.24 0.24 0.25 0.30 0.31 0.31 0.32 0.33 0.33
0.24 0.28 0.29 0.30 0.32 0.33 0.29 0.30 0.30 0.29 0.30 0.29 0.31 0.31 0.31 0.30 0.31 0.27 0.25 0.25 0.27 0.27 0.28 0.28 0.28 0.26 0.26 0.28 0.28 0.25 0.23 0.23 0.22 0.22 0.23 0.23 0.24 0.25 0.24 0.28 0.31 0.32 0.33 0.34
0.34 0.33 0.30 0.32 0.30 0.33 0.33 0.32 0.32 0.31 0.31 0.31 0.32 0.33 0.33 0.32 0.33 0.27 0.24 0.28 0.29 0.29 0.29 0.29 0.29 0.26 0.29 0.29 0.28 0.25 0.23 0.23 0.23 0.23 0.24 0.24 0.25 0.26 0.28 0.27 0.25 0.27 0.33 0.34
0.35 0.36 0.33 0.33 0.33 0.32 0.33 0.32 0.30 0.30 0.31 0.31 0.33 0.33 0.34 0.33 0.31 0.25 0.29 0.31 0.31 0.30 0.30 0.31 0.28 0.27 0.31 0.30 0.27 0.23 0.22 0.22 0.24 0.25 0.24 0.25 0.26 0.28 0.29 0.29 0.27 0.29 0.31 0.34
0.31 0.33 0.35 0.32 0.30 0.30 0.30 0.31 0.29 0.30 0.31 0.32 0.33 0.34 0.35 0.35 0.34 0.32 0.31 0.32 0.30 0.29 0.30 0.27 0.25 0.28 0.30 0.27 0.24 0.23 0.23 0.24 0.26 0.26 0.25 0.25 0.27 0.27 0.28 0.28 0.28 0.29 0.31 0.34
0.28 0.27 0.28 0.29 0.30 0.31 0.29 0.30 0.32 0.32 0.33 0.33 0.34 0.36 0.36 0.36 0.36 0.34 0.31 0.34 0.33 0.27 0.26 0.25 0.25 0.28 0.26 0.25 0.23 0.22 0.23 0.24 0.25 0.25 0.25 0.26 0.27 0.27 0.29 0.29 0.28 0.30 0.32 0.37
0.33 0.32 0.31 0.30 0.29 0.29 0.29 0.30 0.31 0.31 0.30 0.33 0.35 0.36 0.36 0.36 0.33 0.29 0.31 0.29 0.26 0.24 0.25 0.27 0.29 0.29 0.28 0.26 0.25 0.23 0.22 0.22 0.23 0.23 0.24 0.25 0.27 0.28 0.29 0.29 0.30 0.30 0.33 0.38
0.31 0.32 0.33 0.32 0.31 0.30 0.30 0.30 0.30 0.31 0.33 0.35 0.36 0.36 0.38 0.34 0.31 0.29 0.27 0.25 0.24 0.24 0.27 0.29 0.28 0.26 0.23 0.23 0.24 0.23 0.19 0.19 0.20 0.22 0.22 0.24 0.26 0.28 0.29 0.29 0.30 0.32 0.35 0.39
0.31 0.32 0.33 0.32 0.32 0.32 0.32 0.33 0.32 0.33 0.35 0.36 0.37 0.36 0.33 0.33 0.29 0.26 0.27 0.25 0.28 0.29 0.31 0.29 0.25 0.20 0.18 0.19 0.20 0.20 0.19 0.18 0.18 0.20 0.21 0.22 0.26 0.28 0.29 0.29 0.30 0.32 0.37 0.40
0.31 0.32 0.33 0.32 0.31 0.33 0.33 0.35 0.34 0.33 0.35 0.37 0.35 0.34 0.33 0.31 0.28 0.28 0.28 0.27 0.31 0.33 0.29 0.25 0.21 0.20 0.20 0.20 0.20 0.18 0.18 0.18 0.19 0.20 0.20 0.22 0.26 0.28 0.29 0.29 0.31 0.34 0.39 0.40
0.29 0.31 0.33 0.34 0.33 0.33 0.35 0.35 0.35 0.35 0.36 0.36 0.36 0.34 0.31 0.28 0.28 0.31 0.33 0.30 0.32 0.29 0.25 0.22 0.20 0.20 0.20 0.20 0.20 0.18 0.18 0.18 0.19 0.20 0.21 0.24 0.27 0.27 0.29 0.30 0.31 0.36 0.40 0.40
0.30 0.32 0.34 0.34 0.33 0.33 0.36 0.35 0.35 0.35 0.35 0.36 0.34 0.32 0.29 0.29 0.33 0.30 0.27 0.29 0.28 0.25 0.22 0.20 0.20 0.19 0.19 0.18 0.17 0.17 0.18 0.19 0.19 0.21 0.23 0.26 0.27 0.29 0.30 0.31 0.33 0.38 0.40 0.40
0.32 0.33 0.34 0.36 0.35 0.34 0.33 0.35 0.36 0.37 0.37 0.36 0.34 0.32 0.31 0.31 0.32 0.32 0.29 0.26 0.24 0.22 0.20 0.20 0.19 0.19 0.18 0.18 0.18 0.18 0.19 0.19 0.19 0.21 0.24 0.27 0.29 0.30 0.31 0.32 0.34 0.39 0.41 0.41
0.34 0.35 0.35 0.34 0.34 0.34 0.35 0.36 0.35 0.35 0.35 0.34 0.33 0.34 0.35 0.33 0.28 0.27 0.25 0.24 0.22 0.21 0.20 0.20 0.20 0.19 0.18 0.18 0.18 0.18 0.19 0.19 0.20 0.23 0.24 0.27 0.29 0.30 0.32 0.33 0.36 0.40 0.41 0.42
0.35 0.35 0.37 0.37 0.37 0.37 0.37 0.35 0.34 0.34 0.34 0.32 0.36 0.36 0.34 0.32 0.29 0.25 0.24 0.23 0.22 0.21 0.21 0.20 0.19 0.19 0.17 0.16 0.17 0.18 0.19 0.19 0.21 0.22 0.25 0.28 0.29 0.30 0.32 0.34 0.38 0.41 0.42 0.43
0.38 0.39 0.38 0.38 0.38 0.38 0.37 0.35 0.34 0.34 0.35 0.37 0.34 0.33 0.31 0.29 0.26 0.25 0.24 0.23 0.22 0.21 0.21 0.20 0.19 0.18 0.17 0.16 0.16 0.17 0.18 0.19 0.21 0.23 0.26 0.28 0.30 0.30 0.33 0.35 0.39 0.42 0.44 0.44

GFSNGP_prec_pwat_276.txt.gz
Precipitable_Water
0.13 0.14 0.12 0.12 0.12 0.14 0.10 0.09 0.05 0.06 0.08 0.12 0.17 0.17 0.19 0.23 0.23 0.22 0.23 0.22 0.19 0.20 0.18 0.19 0.21 0.23 0.24 0.25 0.26 0.26 0.25 0.24 0.24 0.26 0.27 0.27 0.27 0.27 0.26 0.25 0.24 0.25 0.25 0.25
0.12 0.15 0.13 0.11 0.13 0.14 0.13 0.12 0.10 0.10 0.10 0.16 0.21 0.23 0.22 0.22 0.22 0.22 0.23 0.22 0.22 0.22 0.18 0.17 0.20 0.21 0.22 0.23 0.24 0.24 0.22 0.20 0.22 0.22 0.24 0.24 0.25 0.24 0.23 0.23 0.24 0.24 0.23 0.23
0.10 0.15 0.13 0.09 0.10 0.13 0.13 0.14 0.11 0.08 0.10 0.17 0.18 0.21 0.21 0.22 0.23 0.23 0.24 0.24 0.24 0.22 0.17 0.18 0.20 0.22 0.22 0.24 0.25 0.24 0.22 0.22 0.22 0.22 0.22 0.22 0.22 0.22 0.21 0.21 0.22 0.22 0.22 0.23
0.11 0.13 0.07 0.10 0.14 0.14 0.13 0.14 0.15 0.14 0.14 0.15 0.19 0.22 0.24 0.25 0.24 0.24 0.25 0.25 0.26 0.24 0.19 0.21 0.24 0.24 0.26 0.27 0.25 0.23 0.22 0.22 0.23 0.22 0.22 0.22 0.22 0.20 0.20 0.21 0.21 0.21 0.21 0.23
0.12 0.11 0.10 0.09 0.10 0.11 0.11 0.09 0.14 0.14 0.15 0.16 0.19 0.21 0.21 0.26 0.27 0.26 0.27 0.27 0.28 0.25 0.21 0.23 0.25 0.26 0.27 0.26 0.26 0.23 0.21 0.21 0.21 0.21 0.20 0.20 0.20 0.20 0.21 0.21 0.21 0.21 0.22 0.22
0.15 0.10 0.07 0.09 0.13 0.16 0.15 0.08 0.12 0.14 0.15 0.16 0.18 0.14 0.16 0.25 0.27 0.28 0.29 0.29 0.28 0.26 0.23 0.24 0.26 0.28 0.26 0.25 0.23 0.20 0.21 0.22 0.23 0.22 0.20 0.19 0.19 0.20 0.21 0.21 0.21 0.23 0.23 0.24
0.14 0.11 0.10 0.12 0.17 0.19 0.09 0.08 0.15 0.15 0.16 0.16 0.14 0.15 0.21 0.26 0.27 0.29 0.31 0.29 0.29 0.27 0.22 0.24 0.27 0.27 0.24 0.22 0.20 0.22 0.23 0.24 0.23 0.23 0.21 0.20 0.20 0.21 0.21 0.20 0.20 0.20 0.21 0.23
0.16 0.12 0.09 0.16 0.17 0.12 0.15 0.19 0.19 0.16 0.17 0.17 0.17 0.20 0.23 0.26 0.27 0.29 0.30 0.30 0.29 0.26 0.23 0.26 0.27 0.26 0.21 0.20 0.23 0.25 0.25 0.24 0.22 0.21 0.20 0.20 0.19 0.20 0.21 0.20 0.20 0.20 0.21 0.21
0.17 0.15 0.20 0.21 0.18 0.21 0.23 0.20 0.19 0.19 0.19 0.19 0.19 0.20 0.23 0.26 0.28 0.30 0.30 0.31 0.30 0.26 0.24 0.26 0.26 0.23 0.20 0.21 0.24 0.25 0.24 0.22 0.21 0.21 0.20 0.20 0.19 0.18 0.19 0.20 0.19 0.20 0.21 0.21
0.21 0.22 0.22 0.23 0.24 0.25 0.26 0.25 0.24 0.23 0.22 0.21 0.20 0.22 0.24 0.27 0.29 0.30 0.31 0.32 0.30 0.27 0.24 0.23 0.24 0.24 0.24 0.24 0.26 0.26 0.24 0.23 0.22 0.21 0.20 0.20 0.20 0.20 0.18 0.19 0.19 0.20 0.21 0.21
0.23 0.25 0.25 0.25 0.26 0.25 0.25 0.27 0.26 0.26 0.25 0.23 0.23 0.25 0.26 0.28 0.29 0.31 0.33 0.32 0.29 0.26 0.24 0.22 0.25 0.26 0.27 0.26 0.27 0.26 0.25 0.24 0.22 0.21 0.19 0.19 0.20 0.20 0.20 0.21 0.22 0.22 0.24 0.25
0.19 0.24 0.23 0.22 0.22 0.26 0.25 0.25 0.27 0.26 0.25 0.26 0.26 0.26 0.28 0.28 0.30 0.32 0.32 0.30 0.28 0.26 0.24 0.24 0.26 0.27 0.28 0.29 0.29 0.27 0.24 0.23 0.21 0.20 0.19 0.20 0.20 0.19 0.21 0.21 0.24 0.26 0.28 0.28
0.24 0.26 0.25 0.26 0.28 0.29 0.27 0.28 0.30 0.28 0.28 0.27 0.28 0.28 0.29 0.29 0.31 0.31 0.31 0.31 0.29 0.26 0.24 0.26 0.27 0.27 0.29 0.31 0.30 0.28 0.24 0.20 0.20 0.19 0.18 0.18 0.19 0.19 0.17 0.19 0.22 0.25 0.26 0.27
0.32 0.30 0.26 0.27 0.24 0.28 0.30 0.31 0.33 0.32 0.32 0.30 0.30 0.30 0.31 0.30 0.31 0.31 0.31 0.32 0.33 0.29 0.27 0.27 0.27 0.27 0.31 0.32 0.31 0.27 0.23 0.22 0.21 0.19 0.17 0.17 0.18 0.19 0.19 0.17 0.17 0.19 0.24 0.27
0.34 0.33 0.30 0.30 0.30 0.30 0.33 0.32 0.32 0.31 0.31 0.31 0.32 0.31 0.32 0.31 0.31 0.32 0.34 0.35 0.34 0.31 0.28 0.28 0.27 0.28 0.33 0.32 0.29 0.26 0.24 0.22 0.22 0.21 0.20 0.17 0.18 0.18 0.19 0.18 0.19 0.21 0.23 0.26
0.37 0.35 0.32 0.30 0.29 0.30 0.32 0.32 0.30 0.31 0.33 0.33 0.34 0.34 0.33 0.33 0.34 0.35 0.36 0.36 0.34 0.29 0.29 0.29 0.28 0.31 0.31 0.30 0.29 0.26 0.24 0.23 0.22 0.20 0.18 0.18 0.17 0.17 0.18 0.18 0.19 0.21 0.23 0.24
0.34 0.32 0.33 0.31 0.31 0.32 0.33 0.33 0.33 0.33 0.34 0.34 0.34 0.36 0.36 0.35 0.34 0.34 0.35 0.38 0.37 0.35 0.35 0.33 0.29 0.28 0.30 0.31 0.30 0.25 0.22 0.21 0.20 0.18 0.18 0.17 0.16 0.18 0.18 0.19 0.21 0.22 0.24 0.27
0.37 0.38 0.37 0.34 0.32 0.33 0.34 0.36 0.37 0.36 0.35 0.35 0.37 0.37 0.37 0.35 0.33 0.34 0.36 0.38 0.38 0.37 0.37 0.31 0.27 0.29 0.31 0.31 0.26 0.22 0.21 0.19 0.18 0.16 0.17 0.17 0.17 0.18 0.19 0.20 0.22 0.23 0.24 0.27
0.39 0.37 0.38 0.38 0.36 0.34 0.32 0.35 0.37 0.37 0.37 0.37 0.36 0.36 0.37 0.36 0.37 0.37 0.38 0.38 0.36 0.34 0.30 0.27 0.28 0.31 0.30 0.26 0.23 0.22 0.20 0.19 0.18 0.18 0.18 0.18 0.17 0.19 0.19 0.21 0.23 0.24 0.25 0.26
0.37 0.36 0.38 0.38 0.39 0.37 0.35 0.35 0.36 0.37 0.37 0.37 0.36 0.35 0.35 0.36 0.37 0.37 0.38 0.37 0.36 0.32 0.28 0.29 0.31 0.31 0.29 0.25 0.24 0.22 0.21 0.19 0.17 0.17 0.17 0.17 0.17 0.18 0.19 0.21 0.24 0.24 0.25 0.27
0.33 0.34 0.33 0.35 0.35 0.36 0.35 0.34 0.34 0.34 0.37 0.37 0.35 0.34 0.34 0.36 0.37 0.37 0.37 0.35 0.34 0.30 0.30 0.32 0.32 0.30 0.27 0.24 0.22 0.21 0.19 0.18 0.17 0.17 0.16 0.17 0.18 0.18 0.19 0.22 0.23 0.24 0.26 0.28
0.32 0.33 0.34 0.36 0.35 0.35 0.38 0.37 0.35 0.36 0.37 0.38 0.38 0.38 0.37 0.37 0.37 0.39 0.39 0.35 0.32 0.32 0.33 0.33 0.32 0.28 0.25 0.23 0.21 0.20 0.19 0.18 0.18 0.17 0.17 0.17 0.18 0.18 0.19 0.21 0.23 0.24 0.26 0.28
0.31 0.32 0.34 0.35 0.34 0.33 0.35 0.35 0.36 0.38 0.39 0.38 0.37 0.38 0.38 0.38 0.37 0.36 0.33 0.35 0.35 0.34 0.33 0.32 0.29 0.25 0.23 0.23 0.21 0.20 0.19 0.18 0.17 0.17 0.17 0.17 0.18 0.19 0.20 0.21 0.23 0.25 0.26 0.29
0.27 0.29 0.29 0.31 0.32 0.31 0.30 0.33 0.36 0.39 0.39 0.40 0.41 0.42 0.40 0.39 0.40 0.41 0.37 0.36 0.35 0.33 0.33 0.30 0.26 0.24 0.23 0.23 0.21 0.19 0.18 0.17 0.17 0.16 0.17 0.17 0.19 0.20 0.20 0.22 0.23 0.26 0.28 0.30
0.26 0.28 0.29 0.29 0.30 0.30 0.32 0.34 0.37 0.39 0.38 0.39 0.40 0.41 0.41 0.42 0.39 0.38 0.36 0.35 0.33 0.32 0.29 0.26 0.25 0.25 0.24 0.22 0.20 0.19 0.17 0.17 0.16 0.16 0.16 0.16 0.18 0.19 0.20 0.22 0.24 0.26 0.28 0.31
0.27 0.28 0.30 0.33 0.34 0.34 0.34 0.35 0.34 0.37 0.37 0.38 0.40 0.41 0.41 0.40 0.39 0.37 0.35 0.32 0.32 0.29 0.26 0.26 0.26 0.24 0.22 0.21 0.19 0.18 0.17 0.17 0.16 0.16 0.16 0.16 0.18 0.19 0.20 0.22 0.25 0.27 0.29 0.32
0.33 0.34 0.33 0.34 0.37 0.37 0.37 0.37 0.36 0.36 0.38 0.38 0.37 0.39 0.39 0.37 0.36 0.34 0.31 0.31 0.30 0.28 0.27 0.26 0.25 0.24 0.22 0.20 0.18 0.17 0.17 0.16 0.16 0.15 0.16 0.17 0.18 0.19 0.20 0.23 0.25 0.28 0.30 0.33

GFSNGP_prec_pwat_279.txt.gz
Precipitable_Water
0.14 0.13 0.12 0.11 0.12 0.11 0.08 0.08 0.05 0.06 0.06 0.10 0.14 0.14 0.15 0.19 0.22 0.23 0.23 0.23 0.20 0.21 0.20 0.21 0.23 0.24 0.25 0.25 0.26 0.25 0.23 0.22 0.22 0.24 0.24 0.24 0.23 0.23 0.23 0.23 0.23 0.23 0.23 0.24
0.13 0.16 0.14 0.11 0.12 0.14 0.13 0.12 0.10 0.09 0.08 0.13 0.19 0.21 0.20 0.21 0.22 0.22 0.22 0.23 0.22 0.23 0.21 0.20 0.22 0.22 0.24 0.25 0.25 0.25 0.22 0.21 0.22 0.23 0.23 0.23 0.22 0.22 0.21 0.22 0.22 0.22 0.22 0.22
0.11 0.15 0.14 0.10 0.10 0.12 0.12 0.14 0.13 0.09 0.10 0.13 0.15 0.20 0.19 0.21 0.23 0.23 0.23 0.24 0.23 0.25 0.21 0.20 0.22 0.23 0.23 0.25 0.26 0.24 0.22 0.22 0.21 0.21 0.20 0.21 0.21 0.20 0.20 0.20 0.21 0.21 0.22 0.22
0.11 0.13 0.07 0.10 0.14 0.14 0.12 0.13 0.14 0.13 0.13 0.13 0.14 0.19 0.23 0.25 0.23 0.24 0.25 0.25 0.25 0.27 0.23 0.21 0.23 0.24 0.26 0.26 0.26 0.24 0.21 0.20 0.21 0.21 0.20 0.20 0.19 0.18 0.19 0.20 0.20 0.20 0.21 0.22
0.11 0.11 0.10 0.10 0.11 0.11 0.11 0.09 0.14 0.14 0.15 0.16 0.17 0.21 0.22 0.27 0.26 0.26 0.26 0.27 0.27 0.29 0.26 0.22 0.23 0.25 0.25 0.25 0.25 0.22 0.20 0.21 0.22 0.22 0.21 0.20 0.19 0.19 0.19 0.20 0.20 0.20 0.21 0.21
0.15 0.11 0.09 0.11 0.14 0.15 0.14 0.07 0.13 0.14 0.15 0.16 0.18 0.13 0.16 0.24 0.28 0.28 0.29 0.29 0.29 0.29 0.28 0.22 0.24 0.26 0.25 0.24 0.22 0.20 0.22 0.22 0.23 0.23 0.20 0.19 0.19 0.19 0.21 0.21 0.21 0.22 0.22 0.23
0.16 0.13 0.13 0.14 0.18 0.18 0.08 0.08 0.16 0.16 0.17 0.17 0.15 0.14 0.19 0.23 0.27 0.30 0.29 0.29 0.31 0.29 0.27 0.24 0.26 0.26 0.24 0.22 0.20 0.22 0.25 0.25 0.24 0.22 0.21 0.21 0.21 0.21 0.21 0.20 0.21 0.21 0.21 0.23
0.18 0.14 0.11 0.17 0.18 0.12 0.14 0.17 0.19 0.18 0.17 0.17 0.19 0.20 0.20 0.23 0.26 0.28 0.28 0.30 0.31 0.29 0.29 0.27 0.27 0.26 0.22 0.19 0.23 0.25 0.26 0.25 0.24 0.23 0.22 0.21 0.21 0.20 0.21 0.20 0.20 0.20 0.20 0.21
0.18 0.16 0.20 0.20 0.18 0.21 0.21 0.19 0.20 0.19 0.19 0.20 0.21 0.20 0.21 0.23 0.25 0.27 0.29 0.30 0.32 0.30 0.29 0.28 0.27 0.25 0.20 0.22 0.24 0.25 0.25 0.25 0.25 0.24 0.22 0.22 0.20 0.20 0.20 0.21 0.20 0.20 0.20 0.20
0.20 0.21 0.21 0.22 0.22 0.23 0.24 0.22 0.24 0.24 0.23 0.22 0.19 0.21 0.21 0.23 0.26 0.28 0.30 0.30 0.32 0.32 0.29 0.26 0.26 0.23 0.23 0.25 0.26 0.26 0.25 0.25 0.25 0.23 0.21 0.21 0.21 0.22 0.21 0.20 0.19 0.19 0.20 0.21
0.22 0.23 0.24 0.25 0.25 0.25 0.26 0.26 0.25 0.26 0.25 0.24 0.22 0.21 0.22 0.25 0.27 0.29 0.30 0.32 0.33 0.32 0.28 0.26 0.25 0.24 0.26 0.27 0.28 0.26 0.26 0.26 0.24 0.22 0.20 0.18 0.19 0.20 0.20 0.22 0.21 0.19 0.21 0.23
0.20 0.24 0.22 0.23 0.27 0.28 0.25 0.24 0.25 0.26 0.25 0.27 0.26 0.23 0.25 0.26 0.29 0.31 0.31 0.33 0.34 0.32 0.28 0.26 0.24 0.25 0.27 0.28 0.29 0.28 0.26 0.25 0.23 0.22 0.21 0.19 0.18 0.16 0.20 0.21 0.20 0.21 0.23 0.24
0.27 0.29 0.28 0.28 0.30 0.30 0.27 0.27 0.27 0.29 0.28 0.27 0.27 0.26 0.27 0.28 0.30 0.32 0.33 0.34 0.33 0.30 0.28 0.26 0.25 0.26 0.28 0.29 0.30 0.28 0.26 0.24 0.23 0.22 0.22 0.20 0.18 0.16 0.15 0.18 0.20 0.20 0.23 0.25
0.35 0.32 0.28 0.29 0.26 0.29 0.30 0.31 0.32 0.31 0.31 0.30 0.29 0.30 0.30 0.29 0.31 0.31 0.32 0.33 0.33 0.32 0.30 0.27 0.27 0.27 0.29 0.31 0.30 0.29 0.27 0.26 0.24 0.23 0.23 0.21 0.19 0.17 0.17 0.16 0.15 0.17 0.22 0.25
0.36 0.35 0.31 0.32 0.32 0.31 0.32 0.31 0.31 0.30 0.31 0.30 0.32 0.30 0.30 0.29 0.30 0.31 0.33 0.34 0.34 0.33 0.30 0.28 0.27 0.28 0.30 0.31 0.30 0.28 0.27 0.26 0.25 0.24 0.23 0.20 0.20 0.17 0.18 0.17 0.16 0.18 0.21 0.24
0.36 0.36 0.36 0.32 0.31 0.32 0.32 0.31 0.30 0.30 0.32 0.32 0.31 0.32 0.31 0.32 0.32 0.33 0.34 0.35 0.34 0.32 0.31 0.29 0.29 0.31 0.32 0.31 0.28 0.29 0.29 0.26 0.24 0.23 0.20 0.19 0.18 0.17 0.17 0.17 0.17 0.19 0.21 0.22
0.36 0.34 0.35 0.33 0.33 0.32 0.30 0.31 0.32 0.33 0.33 0.32 0.32 0.34 0.35 0.34 0.34 0.34 0.35 0.37 0.37 0.36 0.35 0.34 0.34 0.35 0.32 0.28 0.29 0.30 0.26 0.22 0.22 0.21 0.19 0.19 0.19 0.18 0.17 0.17 0.18 0.20 0.22 0.25
0.36 0.39 0.38 0.38 0.36 0.35 0.34 0.34 0.36 0.36 0.35 0.35 0.35 0.35 0.35 0.34 0.33 0.34 0.36 0.38 0.38 0.37 0.38 0.38 0.38 0.35 0.28 0.29 0.30 0.27 0.23 0.21 0.22 0.21 0.20 0.19 0.19 0.18 0.18 0.19 0.19 0.20 0.22 0.24
0.37 0.36 0.38 0.38 0.39 0.39 0.36 0.36 0.38 0.39 0.39 0.38 0.37 0.35 0.35 0.36 0.37 0.37 0.38 0.38 0.36 0.36 0.38 0.40 0.39 0.32 0.28 0.28 0.27 0.26 0.22 0.22 0.21 0.21 0.19 0.18 0.18 0.18 0.18 0.18 0.19 0.21 0.23 0.23
0.33 0.40 0.40 0.38 0.40 0.40 0.38 0.39 0.39 0.36 0.40 0.41 0.40 0.38 0.37 0.38 0.39 0.39 0.38 0.36 0.38 0.39 0.40 0.40 0.35 0.29 0.28 0.28 0.27 0.25 0.22 0.21 0.20 0.20 0.19 0.18 0.19 0.18 0.18 0.19 0.19 0.21 0.22 0.23
0.31 0.36 0.36 0.38 0.37 0.40 0.40 0.41 0.39 0.36 0.38 0.40 0.38 0.37 0.37 0.38 0.40 0.39 0.37 0.35 0.39 0.41 0.41 0.37 0.32 0.29 0.30 0.29 0.26 0.22 0.21 0.21 0.20 0.20 0.19 0.18 0.18 0.18 0.18 0.19 0.19 0.21 0.22 0.24
0.31 0.32 0.33 0.35 0.34 0.36 0.39 0.40 0.39 0.38 0.38 0.38 0.40 0.39 0.38 0.37 0.38 0.39 0.40 0.38 0.41 0.42 0.40 0.36 0.33 0.31 0.30 0.27 0.23 0.22 0.21 0.21 0.21 0.20 0.18 0.17 0.17 0.17 0.18 0.19 0.19 0.21 0.22 0.25
0.32 0.32 0.32 0.33 0.33 0.36 0.39 0.38 0.38 0.39 0.37 0.36 0.37 0.39 0.39 0.38 0.38 0.36 0.35 0.41 0.42 0.43 0.39 0.35 0.33 0.31 0.29 0.24 0.23 0.23 0.22 0.21 0.20 0.19 0.18 0.17 0.17 0.18 0.18 0.19 0.19 0.21 0.23 0.25
0.31 0.32 0.32 0.35 0.38 0.37 0.36 0.38 0.39 0.40 0.40 0.39 0.39 0.41 0.41 0.40 0.41 0.43 0.44 0.44 0.43 0.40 0.37 0.35 0.32 0.29 0.25 0.23 0.23 0.23 0.22 0.21 0.19 0.19 0.18 0.17 0.17 0.17 0.17 0.19 0.19 0.21 0.24 0.26
0.30 0.32 0.34 0.33 0.33 0.33 0.36 0.38 0.38 0.36 0.35 0.36 0.39 0.42 0.44 0.45 0.43 0.43 0.43 0.43 0.42 0.39 0.36 0.33 0.31 0.27 0.25 0.24 0.24 0.23 0.22 0.21 0.20 0.18 0.17 0.17 0.16 0.16 0.17 0.18 0.19 0.21 0.24 0.27
0.28 0.28 0.29 0.30 0.29 0.30 0.30 0.32 0.31 0.33 0.34 0.35 0.37 0.40 0.42 0.45 0.45 0.45 0.44 0.42 0.40 0.37 0.33 0.32 0.29 0.25 0.25 0.25 0.24 0.23 0.22 0.20 0.19 0.18 0.17 0.16 0.16 0.16 0.17 0.18 0.19 0.21 0.24 0.27
0.28 0.27 0.27 0.28 0.30 0.31 0.32 0.33 0.32 0.33 0.36 0.37 0.37 0.40 0.43 0.44 0.44 0.43 0.42 0.40 0.37 0.34 0.31 0.29 0.27 0.25 0.26 0.26 0.24 0.22 0.21 0.20 0.18 0.17 0.17 0.16 0.16 0.17 0.18 0.18 0.20 0.22 0.25 0.27